Location: Potomac
(46.8816°N, 113.5795°W)
Time: 05:03:34
(UTC+00:00)

BlueWalker 3 - Visible Passes

Search period start: 30 November 2022 00:00
Search period end: 10 December 2022 00:00
Orbit: 500 x 519 km, 53.2° (Epoch: 29 November)

Date Brightness Start Highest point End Pass type
(mag) Time Alt. Az. Time Alt. Az. Time Alt. Az.
30 Nov 2.5 00:47:22 10° W 00:51:12 49° NNW 00:54:15 15° NE visible
30 Nov 3.9 02:26:55 10° WNW 02:29:04 24° NW 02:29:04 24° NW visible
01 Dec 2.6 00:29:02 10° W 00:32:51 48° NNW 00:36:35 10° NE visible
01 Dec 3.4 02:08:35 10° WNW 02:11:25 29° NNW 02:11:25 29° NNW visible
02 Dec 3.1 01:50:14 10° WNW 01:53:45 31° N 01:53:45 31° N visible
03 Dec 3.0 01:31:52 10° WNW 01:35:24 31° N 01:36:05 29° NNE visible
03 Dec 5.2 03:10:45 10° WNW 03:10:55 11° NW 03:10:55 11° NW visible
04 Dec 3.0 01:13:30 10° WNW 01:17:03 32° N 01:18:27 24° NE visible
04 Dec 4.6 02:52:21 10° WNW 02:53:17 16° NW 02:53:17 16° NW visible
05 Dec 3.0 00:55:07 10° WNW 00:58:41 32° N 01:00:52 18° NE visible
05 Dec 4.0 02:33:58 10° WNW 02:35:41 24° NW 02:35:41 24° NW visible
06 Dec 3.0 00:36:44 10° WNW 00:40:18 32° N 00:43:19 13° ENE visible
06 Dec 3.1 02:15:34 10° WNW 02:18:09 38° NW 02:18:09 38° NW visible
07 Dec 2.9 00:18:20 10° WNW 00:21:55 32° N 00:25:28 10° ENE visible
07 Dec 2.1 01:57:09 10° WNW 02:00:40 62° NNW 02:00:40 62° NNW visible
08 Dec 1.8 01:38:44 10° WNW 01:42:39 71° NNE 01:43:18 56° E visible
08 Dec 5.3 03:17:50 10° W 03:18:09 12° W 03:18:09 12° W visible
09 Dec 1.8 01:20:18 10° WNW 01:24:14 74° NNE 01:26:05 29° ESE visible
09 Dec 4.7 02:59:28 10° W 03:00:57 17° W 03:00:57 17° W visible
